Location: Краснодар
(45.0393°N, 38.9872°E)
Time: 04:23:10
(UTC+03:00)

ISS - Visible Passes

Search period start: 21 November 2018 00:00
Search period end: 01 December 2018 00:00
Orbit: 401 x 409 km, 51.6° (Epoch: 21 November)

Date Brightness Start Highest point End Pass type
(mag) Time Alt. Az. Time Alt. Az. Time Alt. Az.
23 Nov -1.5 18:17:24 10° SSE 18:18:30 13° SE 18:18:30 13° SE visible
24 Nov -2.0 18:59:47 10° SW 19:01:29 27° SSW 19:01:29 27° SSW visible
25 Nov -2.6 18:08:05 10° SSW 18:10:56 28° SE 18:11:41 25° ESE visible
25 Nov -0.3 19:44:07 10° W 19:44:22 12° W 19:44:22 12° W visible
26 Nov -1.8 17:16:52 10° S 17:18:58 16° SE 17:21:05 10° E visible
26 Nov -3.2 18:51:51 10° WSW 18:54:29 54° W 18:54:29 54° W visible
27 Nov -3.7 17:59:44 10° SW 18:02:58 62° SE 18:04:31 27° ENE visible
27 Nov -0.6 19:36:37 10° W 19:37:11 14° WNW 19:37:11 14° WNW visible
28 Nov -3.0 18:44:11 10° W 18:47:10 43° NNW 18:47:10 43° NNW visible
29 Nov -3.6 17:51:49 10° WSW 17:55:03 65° NNW 17:57:05 21° NE visible
29 Nov -0.7 19:29:09 10° WNW 19:29:45 14° WNW 19:29:45 14° WNW visible
30 Nov -2.5 18:36:39 10° WNW 18:39:35 30° NNW 18:39:37 30° NNW visible
